| time (UTC) | temp C | wind direction | speed KPH | gust KPH | rain 1hr cm | rain 24hr cm | rain mn cm | humidity % | barometer mb |
| 20260506163552 | 7 | 88 | 8.0 | 0.0 | 0.00 | 0.00 | 0.00 | 34 | 1019.5 |
| 20260506163007 | 6 | 198 | 8.0 | 0.0 | 0.00 | 0.00 | 0.00 | 35 | 1019.4 |
| 20260506162523 | 6 | 105 | 9.7 | 0.0 | 0.00 | 0.00 | 0.00 | 37 | 1019.5 |
| 20260506162043 | 6 | 168 | 9.7 | 0.0 | 0.00 | 0.00 | 0.00 | 41 | 1019.6 |
| 20260506161602 | 5 | 186 | 9.7 | 0.0 | 0.00 | 0.00 | 0.00 | 41 | 1019.6 |
| 20260506161016 | 5 | 206 | 9.7 | 0.0 | 0.00 | 0.00 | 0.00 | 41 | 1019.8 |
| 20260506160531 | 5 | 137 | 9.7 | 0.0 | 0.00 | 0.00 | 0.00 | 41 | 1019.8 |
| 20260506160050 | 5 | 180 | 11.3 | 0.0 | 0.00 | 0.00 | 0.00 | 41 | 1019.8 |
| 20260506155502 | 4 | 209 | 11.3 | 0.0 | 0.00 | 0.00 | 0.00 | 42 | 1019.8 |
| 20260506155021 | 4 | 171 | 11.3 | 0.0 | 0.00 | 0.00 | 0.00 | 43 | 1019.9 |
| 20260506154536 | 3 | 187 | 11.3 | 0.0 | 0.00 | 0.00 | 0.00 | 43 | 1019.9 |
| 20260506154056 | 3 | 179 | 12.9 | 0.0 | 0.00 | 0.00 | 0.00 | 43 | 1019.9 |
| 20260506153505 | 3 | 187 | 12.9 | 0.0 | 0.00 | 0.00 | 0.00 | 43 | 1019.9 |
| 20260506153023 | 3 | 211 | 12.9 | 0.0 | 0.00 | 0.00 | 0.00 | 46 | 1020.0 |
| 20260506152539 | 3 | 184 | 14.5 | 0.0 | 0.00 | 0.00 | 0.00 | 46 | 1020.0 |
| 20260506152055 | 3 | 200 | 14.5 | 0.0 | 0.00 | 0.00 | 0.00 | 45 | 1020.1 |
| 20260506151507 | 3 | 194 | 14.5 | 0.0 | 0.00 | 0.00 | 0.00 | 46 | 1020.2 |
| 20260506151025 | 2 | 173 | 16.1 | 0.0 | 0.00 | 0.00 | 0.00 | 48 | 1020.2 |
| 20260506150540 | 2 | 175 | 16.1 | 0.0 | 0.00 | 0.00 | 0.00 | 50 | 1020.2 |
| 20260506150058 | 2 | 155 | 16.1 | 0.0 | 0.00 | 0.00 | 0.00 | 53 | 1020.2 |
| 20260506145505 | 2 | 163 | 16.1 | 0.0 | 0.00 | 0.00 | 0.00 | 54 | 1020.2 |
| 20260506145022 | 2 | 198 | 16.1 | 0.0 | 0.00 | 0.00 | 0.00 | 56 | 1020.3 |
| 20260506144549 | 1 | 170 | 14.5 | 0.0 | 0.00 | 0.00 | 0.00 | 57 | 1020.4 |
| 20260506144054 | 1 | 201 | 14.5 | 0.0 | 0.00 | 0.00 | 0.00 | 59 | 1020.5 |
| 20260506143505 | 1 | 195 | 14.5 | 0.0 | 0.00 | 0.00 | 0.00 | 63 | 1020.6 |
| 20260506143027 | 0 | 173 | 16.1 | 0.0 | 0.00 | 0.00 | 0.00 | 63 | 1020.6 |
| 20260506142541 | 0 | 150 | 17.7 | 0.0 | 0.00 | 0.00 | 0.00 | 62 | 1020.6 |
| 20260506142059 | 0 | 175 | 17.7 | 0.0 | 0.00 | 0.00 | 0.00 | 62 | 1020.6 |
| 20260506141515 | 0 | 164 | 16.1 | 0.0 | 0.00 | 0.00 | 0.00 | 63 | 1020.6 |
| 20260506141034 | 0 | 144 | 14.5 | 0.0 | 0.00 | 0.00 | 0.00 | 64 | 1020.6 |
| 20260506140552 | 0 | 144 | 14.5 | 0.0 | 0.00 | 0.00 | 0.00 | 67 | 1020.7 |
| 20260506140105 | 0 | 155 | 14.5 | 0.0 | 0.00 | 0.00 | 0.00 | 68 | 1020.7 |
| 20260506135516 | 0 | 154 | 14.5 | 0.0 | 0.00 | 0.00 | 0.00 | 68 | 1020.5 |
| 20260506135032 | 0 | 147 | 14.5 | 0.0 | 0.00 | 0.00 | 0.00 | 69 | 1020.5 |
| 20260506134554 | 0 | 169 | 14.5 | 0.0 | 0.00 | 0.00 | 0.00 | 76 | 1020.5 |
| 20260506134106 | -1 | 154 | 14.5 | 0.0 | 0.00 | 0.00 | 0.00 | 75 | 1020.5 |
| 20260506133515 | -2 | 178 | 12.9 | 0.0 | 0.00 | 0.00 | 0.00 | 75 | 1020.3 |
| 20260506133030 | -2 | 171 | 11.3 | 0.0 | 0.00 | 0.00 | 0.00 | 76 | 1020.3 |
| 20260506132545 | -2 | 170 | 9.7 | 0.0 | 0.00 | 0.00 | 0.00 | 78 | 1020.3 |
| 20260506132100 | -2 | 188 | 9.7 | 0.0 | 0.00 | 0.00 | 0.00 | 79 | 1020.3 |
| 20260506131513 | -3 | 200 | 9.7 | 0.0 | 0.00 | 0.00 | 0.00 | 80 | 1020.3 |
| 20260506131030 | -3 | 194 | 11.3 | 0.0 | 0.00 | 0.00 | 0.00 | 81 | 1020.0 |
| 20260506130549 | -3 | 195 | 11.3 | 0.0 | 0.00 | 0.00 | 0.00 | 82 | 1020.0 |
| 20260506130003 | -5 | 212 | 9.7 | 0.0 | 0.00 | 0.00 | 0.00 | 83 | 1020.2 |
| 20260506125518 | -5 | 209 | 9.7 | 0.0 | 0.00 | 0.00 | 0.00 | 83 | 1020.1 |
| 20260506125037 | -6 | 198 | 9.7 | 0.0 | 0.00 | 0.00 | 0.00 | 83 | 1019.9 |
| 20260506124553 | -6 | 200 | 9.7 | 0.0 | 0.00 | 0.00 | 0.00 | 83 | 1019.9 |
| 20260506124010 | -6 | 198 | 9.7 | 0.0 | 0.00 | 0.00 | 0.00 | 83 | 1020.0 |
| 20260506123530 | -6 | 195 | 8.0 | 0.0 | 0.00 | 0.00 | 0.00 | 82 | 1019.9 |
| 20260506123048 | -6 | 194 | 8.0 | 0.0 | 0.00 | 0.00 | 0.00 | 82 | 1020.1 |
| 20260506122504 | -6 | 184 | 8.0 | 0.0 | 0.00 | 0.00 | 0.00 | 82 | 1019.9 |
| 20260506122021 | -6 | 180 | 8.0 | 0.0 | 0.00 | 0.00 | 0.00 | 83 | 1019.9 |
| 20260506121539 | -6 | 181 | 9.7 | 0.0 | 0.00 | 0.00 | 0.00 | 83 | 1019.9 |
| 20260506121059 | -6 | 182 | 9.7 | 0.0 | 0.00 | 0.00 | 0.00 | 83 | 1019.7 |
| 20260506120511 | -6 | 190 | 9.7 | 0.0 | 0.00 | 0.00 | 0.00 | 83 | 1019.8 |
| 20260506120033 | -6 | 193 | 8.0 | 0.0 | 0.00 | 0.00 | 0.00 | 83 | 1019.8 |
| 20260506115553 | -6 | 196 | 8.0 | 0.0 | 0.00 | 0.00 | 0.00 | 82 | 1019.8 |
| 20260506115008 | -6 | 192 | 8.0 | 0.0 | 0.00 | 0.00 | 0.00 | 83 | 1019.7 |
| 20260506114531 | -7 | 196 | 8.0 | 0.0 | 0.00 | 0.00 | 0.00 | 83 | 1019.8 |
| 20260506114053 | -7 | 189 | 6.4 | 0.0 | 0.00 | 0.00 | 0.00 | 82 | 1019.7 |
| 20260506113507 | -7 | 189 | 6.4 | 0.0 | 0.00 | 0.00 | 0.00 | 83 | 1019.9 |
| 20260506113025 | -7 | 189 | 8.0 | 0.0 | 0.00 | 0.00 | 0.00 | 83 | 1019.8 |
| 20260506112548 | -6 | 189 | 9.7 | 0.0 | 0.00 | 0.00 | 0.00 | 84 | 1019.8 |
| 20260506112006 | -7 | 190 | 9.7 | 0.0 | 0.00 | 0.00 | 0.00 | 83 | 1019.8 |
| 20260506111524 | -7 | 198 | 9.7 | 0.0 | 0.00 | 0.00 | 0.00 | 83 | 1019.7 |
| 20260506111046 | -7 | 203 | 9.7 | 0.0 | 0.00 | 0.00 | 0.00 | 83 | 1019.7 |
| 20260506110503 | -7 | 191 | 8.0 | 0.0 | 0.00 | 0.00 | 0.00 | 83 | 1019.8 |
| 20260506110021 | -7 | 184 | 8.0 | 0.0 | 0.00 | 0.00 | 0.00 | 81 | 1019.8 |
| 20260506105542 | -7 | 184 | 8.0 | 0.0 | 0.00 | 0.00 | 0.00 | 81 | 1019.8 |
| 20260506105103 | -7 | 184 | 8.0 | 0.0 | 0.00 | 0.00 | 0.00 | 82 | 1019.7 |
| 20260506104517 | -7 | 181 | 8.0 | 0.0 | 0.00 | 0.00 | 0.00 | 83 | 1019.7 |
| 20260506104034 | -7 | 187 | 8.0 | 0.0 | 0.00 | 0.00 | 0.00 | 83 | 1019.7 |
| 20260506103554 | -7 | 187 | 8.0 | 0.0 | 0.00 | 0.00 | 0.00 | 84 | 1019.6 |
| 20260506103008 | -8 | 184 | 6.4 | 0.0 | 0.00 | 0.00 | 0.00 | 82 | 1019.6 |
| 20260506102528 | -8 | 184 | 6.4 | 0.0 | 0.00 | 0.00 | 0.00 | 81 | 1019.6 |
| 20260506102045 | -7 | 184 | 8.0 | 0.0 | 0.00 | 0.00 | 0.00 | 80 | 1019.6 |
| 20260506101503 | -7 | 184 | 8.0 | 0.0 | 0.00 | 0.00 | 0.00 | 80 | 1019.6 |
| 20260506101020 | -7 | 193 | 8.0 | 0.0 | 0.00 | 0.00 | 0.00 | 82 | 1019.4 |
| 20260506100542 | -7 | 194 | 8.0 | 0.0 | 0.00 | 0.00 | 0.00 | 83 | 1019.5 |
| 20260506100107 | -7 | 192 | 8.0 | 0.0 | 0.00 | 0.00 | 0.00 | 83 | 1019.4 |
| 20260506095518 | -7 | 190 | 8.0 | 0.0 | 0.00 | 0.00 | 0.00 | 81 | 1019.4 |
| 20260506095042 | -7 | 190 | 8.0 | 0.0 | 0.00 | 0.00 | 0.00 | 82 | 1019.4 |
| 20260506094615 | -7 | 189 | 8.0 | 0.0 | 0.00 | 0.00 | 0.00 | 83 | 1019.3 |
| 20260506094016 | -7 | 190 | 6.4 | 0.0 | 0.00 | 0.00 | 0.00 | 81 | 1019.5 |
| 20260506093539 | -7 | 190 | 6.4 | 0.0 | 0.00 | 0.00 | 0.00 | 80 | 1019.3 |
| 20260506093054 | -7 | 192 | 6.4 | 0.0 | 0.00 | 0.00 | 0.00 | 80 | 1019.4 |
| 20260506092505 | -6 | 192 | 6.4 | 0.0 | 0.00 | 0.00 | 0.00 | 80 | 1019.4 |
| 20260506092023 | -6 | 192 | 6.4 | 0.0 | 0.00 | 0.00 | 0.00 | 79 | 1019.5 |
| 20260506091543 | -6 | 192 | 6.4 | 0.0 | 0.00 | 0.00 | 0.00 | 79 | 1019.6 |
| 20260506091100 | -6 | 192 | 6.4 | 0.0 | 0.00 | 0.00 | 0.00 | 80 | 1019.5 |
| 20260506090511 | -6 | 195 | 8.0 | 0.0 | 0.00 | 0.00 | 0.00 | 79 | 1019.5 |
| 20260506090030 | -6 | 200 | 8.0 | 0.0 | 0.00 | 0.00 | 0.00 | 79 | 1019.5 |
| 20260506085547 | -6 | 199 | 8.0 | 0.0 | 0.00 | 0.00 | 0.00 | 79 | 1019.3 |
| 20260506085003 | -6 | 183 | 8.0 | 0.0 | 0.00 | 0.00 | 0.00 | 80 | 1019.4 |
| 20260506084532 | -6 | 183 | 8.0 | 0.0 | 0.00 | 0.00 | 0.00 | 77 | 1019.3 |
| 20260506084044 | -6 | 183 | 8.0 | 0.0 | 0.00 | 0.00 | 0.00 | 75 | 1019.3 |
| 20260506083604 | -5 | 183 | 8.0 | 0.0 | 0.00 | 0.00 | 0.00 | 77 | 1019.3 |
| 20260506083024 | -5 | 184 | 8.0 | 0.0 | 0.00 | 0.00 | 0.00 | 76 | 1019.2 |
| 20260506082541 | -5 | 183 | 8.0 | 0.0 | 0.00 | 0.00 | 0.00 | 76 | 1019.2 |
| 20260506082059 | -5 | 190 | 8.0 | 0.0 | 0.00 | 0.00 | 0.00 | 73 | 1019.2 |
| 20260506081516 | -4 | 190 | 6.4 | 0.0 | 0.00 | 0.00 | 0.00 | 72 | 1019.2 |
| 20260506081033 | -3 | 180 | 4.8 | 0.0 | 0.00 | 0.00 | 0.00 | 72 | 1019.3 |
| 20260506080551 | -3 | 43 | 4.8 | 0.0 | 0.00 | 0.00 | 0.00 | 71 | 1019.1 |
| 20260506073108 | -3 | 43 | 4.8 | 0.0 | 0.00 | 0.00 | 0.00 | 71 | 1019.1 |
| 20260506072522 | -3 | 43 | 4.8 | 0.0 | 0.00 | 0.00 | 0.00 | 70 | 1019.0 |
| 20260506072038 | -2 | 43 | 4.8 | 0.0 | 0.00 | 0.00 | 0.00 | 70 | 1019.0 |
| 20260506071601 | -2 | 43 | 6.4 | 0.0 | 0.00 | 0.00 | 0.00 | 71 | 1019.1 |
| 20260506071010 | -3 | 43 | 6.4 | 0.0 | 0.00 | 0.00 | 0.00 | 72 | 1019.0 |
| 20260506070529 | -3 | 43 | 4.8 | 0.0 | 0.00 | 0.00 | 0.00 | 72 | 1019.0 |
| 20260506062004 | -3 | 39 | 6.4 | 0.0 | 0.00 | 0.00 | 0.00 | 72 | 1018.6 |
| 20260506061527 | -2 | 37 | 6.4 | 0.0 | 0.00 | 0.00 | 0.00 | 70 | 1018.5 |
| 20260506061042 | -2 | 37 | 8.0 | 0.0 | 0.00 | 0.00 | 0.00 | 70 | 1018.4 |
| 20260506060601 | -2 | 39 | 8.0 | 0.0 | 0.00 | 0.00 | 0.00 | 68 | 1018.3 |
| 20260506051010 | 0 | 323 | 19.3 | 0.0 | 0.00 | 0.00 | 0.00 | 62 | 1017.4 |
| 20260506050537 | 0 | 322 | 17.7 | 0.0 | 0.00 | 0.00 | 0.00 | 62 | 1017.3 |
| 20260506045036 | 0 | 321 | 19.3 | 0.0 | 0.00 | 0.00 | 0.00 | 64 | 1017.4 |
| 20260506044603 | 0 | 315 | 20.9 | 0.0 | 0.00 | 0.00 | 0.00 | 64 | 1017.4 |
| 20260506044017 | 0 | 325 | 20.9 | 0.0 | 0.00 | 0.00 | 0.00 | 64 | 1017.4 |
| 20260506043537 | 0 | 319 | 20.9 | 0.0 | 0.00 | 0.00 | 0.00 | 64 | 1017.4 |
| 20260506043059 | 1 | 315 | 22.5 | 0.0 | 0.00 | 0.00 | 0.00 | 64 | 1017.4 |
| 20260506042509 | 1 | 323 | 24.1 | 0.0 | 0.00 | 0.00 | 0.00 | 64 | 1017.4 |
| 20260506042035 | 1 | 304 | 24.1 | 0.0 | 0.00 | 0.00 | 0.00 | 64 | 1017.4 |
| 20260506041556 | 1 | 328 | 24.1 | 0.0 | 0.00 | 0.00 | 0.00 | 65 | 1017.4 |
| 20260506041007 | 1 | 305 | 25.7 | 0.0 | 0.00 | 0.00 | 0.00 | 65 | 1017.1 |
| 20260506040527 | 1 | 313 | 27.4 | 0.0 | 0.00 | 0.00 | 0.00 | 66 | 1017.2 |
| 20260506040042 | 1 | 322 | 25.7 | 0.0 | 0.00 | 0.00 | 0.00 | 66 | 1017.1 |
| 20260506035502 | 1 | 317 | 24.1 | 0.0 | 0.00 | 0.00 | 0.00 | 67 | 1017.1 |
| 20260506035027 | 1 | 326 | 25.7 | 0.0 | 0.00 | 0.00 | 0.00 | 67 | 1017.2 |
| 20260506034551 | 1 | 312 | 27.4 | 0.0 | 0.00 | 0.00 | 0.00 | 67 | 1017.0 |
| 20260506034003 | 1 | 316 | 29.0 | 0.0 | 0.00 | 0.00 | 0.00 | 67 | 1016.9 |
| 20260506033521 | 1 | 317 | 30.6 | 0.0 | 0.00 | 0.00 | 0.00 | 67 | 1016.8 |
| 20260506033042 | 1 | 329 | 32.2 | 0.0 | 0.00 | 0.00 | 0.00 | 68 | 1016.7 |
| 20260506032502 | 1 | 319 | 33.8 | 0.0 | 0.00 | 0.00 | 0.00 | 66 | 1016.6 |
| 20260506032022 | 1 | 320 | 35.4 | 0.0 | 0.00 | 0.00 | 0.00 | 65 | 1016.5 |
| 20260506031540 | 1 | 328 | 33.8 | 0.0 | 0.00 | 0.00 | 0.00 | 66 | 1016.4 |
| 20260506031102 | 1 | 327 | 32.2 | 0.0 | 0.00 | 0.00 | 0.00 | 67 | 1016.3 |
| 20260506030518 | 1 | 320 | 29.0 | 0.0 | 0.00 | 0.00 | 0.00 | 67 | 1016.2 |
| 20260506030035 | 1 | 302 | 30.6 | 0.0 | 0.00 | 0.00 | 0.00 | 67 | 1016.0 |
| 20260506025554 | 1 | 311 | 30.6 | 0.0 | 0.00 | 0.00 | 0.00 | 68 | 1016.0 |
| 20260506025008 | 1 | 298 | 32.2 | 0.0 | 0.00 | 0.00 | 0.00 | 67 | 1015.7 |
| 20260506024527 | 1 | 317 | 32.2 | 0.0 | 0.00 | 0.00 | 0.00 | 67 | 1015.4 |
| 20260506024046 | 1 | 327 | 30.6 | 0.0 | 0.00 | 0.00 | 0.00 | 67 | 1015.4 |
| 20260506023507 | 1 | 328 | 33.8 | 0.0 | 0.00 | 0.00 | 0.00 | 65 | 1015.3 |
| 20260506023026 | 1 | 325 | 32.2 | 0.0 | 0.00 | 0.00 | 0.00 | 65 | 1015.3 |
| 20260506022544 | 1 | 339 | 33.8 | 0.0 | 0.00 | 0.00 | 0.00 | 66 | 1015.0 |
| 20260506022006 | 2 | 338 | 35.4 | 0.0 | 0.00 | 0.00 | 0.00 | 66 | 1014.8 |
| 20260506021526 | 2 | 331 | 33.8 | 0.0 | 0.00 | 0.00 | 0.00 | 63 | 1014.7 |
| 20260506021043 | 2 | 338 | 33.8 | 0.0 | 0.00 | 0.00 | 0.00 | 62 | 1014.7 |
| 20260506020601 | 2 | 334 | 37.0 | 0.0 | 0.00 | 0.00 | 0.00 | 61 | 1014.5 |
| 20260506020013 | 2 | 323 | 40.2 | 0.0 | 0.00 | 0.00 | 0.00 | 60 | 1014.4 |
| 20260506015536 | 2 | 328 | 40.2 | 0.0 | 0.00 | 0.00 | 0.00 | 59 | 1014.3 |
| 20260506015054 | 2 | 329 | 40.2 | 0.0 | 0.00 | 0.00 | 0.00 | 59 | 1014.3 |
| 20260506014507 | 2 | 323 | 38.6 | 0.0 | 0.00 | 0.00 | 0.00 | 58 | 1014.1 |
| 20260506014031 | 2 | 323 | 38.6 | 0.0 | 0.00 | 0.00 | 0.00 | 57 | 1013.8 |
| 20260506013550 | 3 | 325 | 38.6 | 0.0 | 0.00 | 0.00 | 0.00 | 57 | 1013.8 |
| 20260506013002 | 3 | 302 | 38.6 | 0.0 | 0.00 | 0.00 | 0.00 | 55 | 1013.9 |
| 20260506012519 | 3 | 331 | 38.6 | 0.0 | 0.00 | 0.00 | 0.00 | 52 | 1013.8 |
| 20260506012036 | 3 | 331 | 37.0 | 0.0 | 0.00 | 0.00 | 0.00 | 51 | 1013.7 |
| 20260506011620 | 3 | 329 | 35.4 | 0.0 | 0.00 | 0.00 | 0.00 | 51 | 1013.7 |
| 20260506011005 | 3 | 325 | 35.4 | 0.0 | 0.00 | 0.00 | 0.00 | 49 | 1013.7 |
| 20260506010524 | 3 | 314 | 33.8 | 0.0 | 0.00 | 0.00 | 0.00 | 48 | 1013.6 |
| 20260506010043 | 4 | 320 | 32.2 | 0.0 | 0.00 | 0.00 | 0.00 | 48 | 1013.4 |
| 20260506005503 | 3 | 321 | 32.2 | 0.0 | 0.00 | 0.00 | 0.00 | 51 | 1013.6 |
| 20260506005020 | 3 | 311 | 35.4 | 0.0 | 0.00 | 0.00 | 0.00 | 52 | 1013.2 |
| 20260506004543 | 4 | 336 | 37.0 | 0.0 | 0.00 | 0.00 | 0.00 | 49 | 1012.9 |
| 20260506004054 | 4 | 312 | 37.0 | 0.0 | 0.00 | 0.00 | 0.00 | 49 | 1012.8 |
| 20260506003505 | 4 | 314 | 37.0 | 0.0 | 0.00 | 0.00 | 0.00 | 47 | 1012.7 |
| 20260506003022 | 5 | 332 | 35.4 | 0.0 | 0.00 | 0.00 | 0.00 | 47 | 1012.7 |
| 20260506002540 | 5 | 336 | 33.8 | 0.0 | 0.00 | 0.00 | 0.00 | 47 | 1012.4 |
| 20260506002105 | 5 | 323 | 35.4 | 0.0 | 0.00 | 0.00 | 0.00 | 48 | 1012.6 |
| 20260506001518 | 5 | 318 | 38.6 | 0.0 | 0.00 | 0.00 | 0.00 | 49 | 1012.4 |
| 20260506001041 | 5 | 321 | 38.6 | 0.0 | 0.00 | 0.00 | 0.00 | 48 | 1012.4 |
| 20260506000600 | 5 | 316 | 37.0 | 0.0 | 0.00 | 0.00 | 0.00 | 48 | 1012.3 |
| 20260506000010 | 5 | 331 | 37.0 | 0.0 | 0.00 | 0.00 | 0.00 | 47 | 1012.2 |
| 20260505235526 | 5 | 304 | 37.0 | 0.0 | 0.00 | 0.00 | 0.00 | 47 | 1012.2 |
| 20260505235055 | 5 | 325 | 37.0 | 0.0 | 0.00 | 0.00 | 0.00 | 47 | 1012.2 |
| 20260505234514 | 5 | 331 | 35.4 | 0.0 | 0.00 | 0.00 | 0.00 | 44 | 1012.1 |
| 20260505234038 | 5 | 300 | 33.8 | 0.0 | 0.00 | 0.00 | 0.00 | 47 | 1012.2 |
| 20260505233555 | 5 | 323 | 33.8 | 0.0 | 0.00 | 0.00 | 0.00 | 46 | 1012.2 |
| 20260505233017 | 5 | 328 | 33.8 | 0.0 | 0.00 | 0.00 | 0.00 | 46 | 1012.3 |
| 20260505232531 | 6 | 333 | 33.8 | 0.0 | 0.00 | 0.00 | 0.00 | 44 | 1012.2 |
| 20260505232050 | 6 | 333 | 35.4 | 0.0 | 0.00 | 0.00 | 0.00 | 44 | 1012.0 |
| 20260505231505 | 6 | 329 | 35.4 | 0.0 | 0.00 | 0.00 | 0.00 | 47 | 1012.2 |
| 20260505231030 | 6 | 325 | 35.4 | 0.0 | 0.00 | 0.00 | 0.00 | 46 | 1012.0 |
| 20260505230555 | 6 | 331 | 35.4 | 0.0 | 0.00 | 0.00 | 0.00 | 47 | 1011.9 |
| 20260505230012 | 6 | 319 | 37.0 | 0.0 | 0.00 | 0.00 | 0.00 | 45 | 1011.9 |
| 20260505225529 | 6 | 325 | 37.0 | 0.0 | 0.00 | 0.00 | 0.00 | 46 | 1012.0 |
| 20260505225053 | 6 | 331 | 38.6 | 0.0 | 0.00 | 0.00 | 0.00 | 45 | 1011.9 |
| 20260505224510 | 6 | 328 | 35.4 | 0.0 | 0.00 | 0.00 | 0.00 | 43 | 1011.7 |
| 20260505224025 | 6 | 325 | 32.2 | 0.0 | 0.00 | 0.00 | 0.00 | 42 | 1011.4 |
| 20260505223546 | 6 | 311 | 33.8 | 0.0 | 0.00 | 0.00 | 0.00 | 44 | 1011.8 |
| 20260505223010 | 6 | 318 | 32.2 | 0.0 | 0.00 | 0.00 | 0.00 | 44 | 1011.9 |
| 20260505222528 | 6 | 310 | 32.2 | 0.0 | 0.00 | 0.00 | 0.00 | 43 | 1011.8 |
| 20260505222049 | 6 | 340 | 32.2 | 0.0 | 0.00 | 0.00 | 0.00 | 41 | 1011.8 |
| 20260505221512 | 6 | 327 | 32.2 | 0.0 | 0.00 | 0.00 | 0.00 | 42 | 1011.8 |
| 20260505221030 | 6 | 336 | 30.6 | 0.0 | 0.00 | 0.00 | 0.00 | 40 | 1012.0 |
| 20260505220549 | 6 | 325 | 30.6 | 0.0 | 0.00 | 0.00 | 0.00 | 39 | 1011.8 |
| 20260505220013 | 6 | 341 | 30.6 | 0.0 | 0.00 | 0.00 | 0.00 | 38 | 1011.9 |
| 20260505215528 | 6 | 340 | 30.6 | 0.0 | 0.00 | 0.00 | 0.00 | 38 | 1011.9 |
| 20260505215053 | 6 | 331 | 32.2 | 0.0 | 0.00 | 0.00 | 0.00 | 39 | 1011.8 |
| 20260505214511 | 6 | 311 | 32.2 | 0.0 | 0.00 | 0.00 | 0.00 | 38 | 1011.7 |
| 20260505214026 | 6 | 304 | 30.6 | 0.0 | 0.00 | 0.00 | 0.00 | 38 | 1011.9 |
| 20260505213544 | 7 | 322 | 30.6 | 0.0 | 0.00 | 0.00 | 0.00 | 39 | 1011.8 |
| 20260505213003 | 7 | 342 | 29.0 | 0.0 | 0.00 | 0.00 | 0.00 | 37 | 1011.8 |
| 20260505212523 | 7 | 333 | 29.0 | 0.0 | 0.00 | 0.00 | 0.00 | 37 | 1011.9 |
| 20260505212042 | 7 | 319 | 29.0 | 0.0 | 0.00 | 0.00 | 0.00 | 37 | 1011.7 |
| 20260505211509 | 7 | 331 | 29.0 | 0.0 | 0.00 | 0.00 | 0.00 | 35 | 1011.8 |
| 20260505211025 | 7 | 316 | 27.4 | 0.0 | 0.00 | 0.00 | 0.00 | 36 | 1011.7 |
| 20260505210547 | 7 | 332 | 25.7 | 0.0 | 0.00 | 0.00 | 0.00 | 36 | 1011.9 |
| 20260505205522 | 7 | 300 | 25.7 | 0.0 | 0.00 | 0.00 | 0.00 | 38 | 1011.9 |
| 20260505205037 | 7 | 317 | 27.4 | 0.0 | 0.00 | 0.00 | 0.00 | 38 | 1012.0 |
| 20260505204600 | 7 | 321 | 29.0 | 0.0 | 0.00 | 0.00 | 0.00 | 39 | 1011.9 |
| 20260505204012 | 7 | 312 | 29.0 | 0.0 | 0.00 | 0.00 | 0.00 | 37 | 1011.9 |
| 20260505203530 | 7 | 317 | 27.4 | 0.0 | 0.00 | 0.00 | 0.00 | 41 | 1011.8 |
| 20260505203052 | 7 | 301 | 27.4 | 0.0 | 0.00 | 0.00 | 0.00 | 39 | 1012.0 |
| 20260505202515 | 7 | 333 | 29.0 | 0.0 | 0.00 | 0.00 | 0.00 | 42 | 1012.3 |
| 20260505202032 | 6 | 323 | 33.8 | 0.0 | 0.00 | 0.00 | 0.00 | 39 | 1012.2 |
| 20260505201552 | 7 | 323 | 32.2 | 0.0 | 0.00 | 0.00 | 0.00 | 39 | 1012.2 |
| 20260505201004 | 7 | 315 | 30.6 | 0.0 | 0.00 | 0.00 | 0.00 | 40 | 1012.3 |
| 20260505200521 | 6 | 315 | 29.0 | 0.0 | 0.00 | 0.00 | 0.00 | 41 | 1012.2 |
| 20260505200037 | 6 | 306 | 30.6 | 0.0 | 0.00 | 0.00 | 0.00 | 42 | 1012.2 |
| 20260505195554 | 6 | 303 | 30.6 | 0.0 | 0.00 | 0.00 | 0.00 | 41 | 1012.3 |
| 20260505195009 | 6 | 321 | 30.6 | 0.0 | 0.00 | 0.00 | 0.00 | 40 | 1012.2 |
| 20260505194529 | 6 | 317 | 30.6 | 0.0 | 0.00 | 0.00 | 0.00 | 40 | 1012.2 |
| 20260505194048 | 6 | 312 | 30.6 | 0.0 | 0.00 | 0.00 | 0.00 | 39 | 1012.1 |
| 20260505193502 | 6 | 329 | 30.6 | 0.0 | 0.00 | 0.00 | 0.00 | 41 | 1012.0 |
| 20260505193031 | 7 | 319 | 30.6 | 0.0 | 0.00 | 0.00 | 0.00 | 40 | 1012.0 |
| 20260505192544 | 6 | 315 | 32.2 | 0.0 | 0.00 | 0.00 | 0.00 | 41 | 1012.0 |
| 20260505192104 | 6 | 351 | 33.8 | 0.0 | 0.00 | 0.00 | 0.00 | 41 | 1012.0 |
| 20260505191522 | 6 | 321 | 33.8 | 0.0 | 0.00 | 0.00 | 0.00 | 41 | 1011.8 |
| 20260505191037 | 6 | 332 | 33.8 | 0.0 | 0.00 | 0.00 | 0.00 | 41 | 1011.8 |
| 20260505190603 | 7 | 322 | 33.8 | 0.0 | 0.00 | 0.00 | 0.00 | 42 | 1011.7 |
| 20260505190016 | 7 | 331 | 33.8 | 0.0 | 0.00 | 0.00 | 0.00 | 40 | 1011.8 |
| 20260505185535 | 7 | 336 | 30.6 | 0.0 | 0.00 | 0.00 | 0.00 | 40 | 1011.7 |
| 20260505185100 | 7 | 325 | 27.4 | 0.0 | 0.00 | 0.00 | 0.00 | 39 | 1011.6 |
| 20260505184515 | 7 | 343 | 27.4 | 0.0 | 0.00 | 0.00 | 0.00 | 38 | 1011.5 |
| 20260505184041 | 7 | 344 | 29.0 | 0.0 | 0.00 | 0.00 | 0.00 | 38 | 1011.5 |
| 20260505183604 | 7 | 329 | 27.4 | 0.0 | 0.00 | 0.00 | 0.00 | 38 | 1011.6 |
| 20260505183024 | 8 | 327 | 27.4 | 0.0 | 0.00 | 0.00 | 0.00 | 38 | 1011.5 |
| 20260505182541 | 7 | 355 | 27.4 | 0.0 | 0.00 | 0.00 | 0.00 | 38 | 1011.5 |
| 20260505182101 | 8 | 338 | 27.4 | 0.0 | 0.00 | 0.00 | 0.00 | 38 | 1011.5 |
| 20260505181516 | 7 | 323 | 29.0 | 0.0 | 0.00 | 0.00 | 0.00 | 38 | 1011.5 |
| 20260505181036 | 8 | 341 | 29.0 | 0.0 | 0.00 | 0.00 | 0.00 | 36 | 1011.4 |
| 20260505180556 | 7 | 355 | 27.4 | 0.0 | 0.00 | 0.00 | 0.00 | 37 | 1011.4 |
| 20260505180008 | 7 | 306 | 29.0 | 0.0 | 0.00 | 0.00 | 0.00 | 36 | 1011.4 |
| 20260505175527 | 7 | 321 | 25.7 | 0.0 | 0.00 | 0.00 | 0.00 | 38 | 1011.3 |
| 20260505175044 | 7 | 323 | 24.1 | 0.0 | 0.00 | 0.00 | 0.00 | 39 | 1011.3 |
| 20260505174559 | 7 | 332 | 22.5 | 0.0 | 0.00 | 0.00 | 0.00 | 39 | 1011.5 |
| 20260505174014 | 7 | 328 | 24.1 | 0.0 | 0.00 | 0.00 | 0.00 | 38 | 1011.7 |
| 20260505173531 | 7 | 338 | 22.5 | 0.0 | 0.00 | 0.00 | 0.00 | 39 | 1011.7 |
| 20260505173048 | 7 | 325 | 20.9 | 0.0 | 0.00 | 0.00 | 0.00 | 40 | 1011.7 |
| 20260505172507 | 7 | 327 | 20.9 | 0.0 | 0.00 | 0.00 | 0.00 | 40 | 1011.6 |
| 20260505172018 | 7 | 314 | 19.3 | 0.0 | 0.00 | 0.00 | 0.00 | 41 | 1011.7 |
| 20260505171536 | 6 | 350 | 17.7 | 0.0 | 0.00 | 0.00 | 0.00 | 42 | 1011.8 |
| 20260505171055 | 6 | 312 | 17.7 | 0.0 | 0.00 | 0.00 | 0.00 | 42 | 1011.8 |
| 20260505170512 | 6 | 24 | 16.1 | 0.0 | 0.00 | 0.00 | 0.00 | 42 | 1011.9 |
| 20260505170030 | 6 | 355 | 16.1 | 0.0 | 0.00 | 0.00 | 0.00 | 44 | 1012.0 |
| 20260505165543 | 6 | 355 | 17.7 | 0.0 | 0.00 | 0.00 | 0.00 | 43 | 1012.1 |
| 20260505165105 | 5 | 9 | 17.7 | 0.0 | 0.00 | 0.00 | 0.00 | 44 | 1012.0 |
| 20260505164518 | 5 | 355 | 20.9 | 0.0 | 0.00 | 0.00 | 0.00 | 45 | 1012.0 |
| 20260505164036 | 6 | 30 | 20.9 | 0.0 | 0.00 | 0.00 | 0.00 | 45 | 1012.0 |